Theta_e
314 317 318 317 315 314 313 313 312 312 312 312 312 313 313 312 311 311 311 311 311 311 311 312 312 311 310 311 311 311 311 312 311 311 311 311 311 311 311 311 311 311 311 311 310 309 309 309 309 308 308 308 307 307 306 306 306 305 304 303 302 301 301 300 300 300 299 298 298 298 298 298 297 297 298 298 298 298 298 297 297 296 296 296 296 296
312 315 317 317 314 313 313 313 311 311 312 312 313 313 313 312 312 311 311 311 311 310 311 311 312 311 310 311 311 311 311 311 312 311 312 312 311 312 312 312 312 311 312 311 311 309 308 309 309 308 308 307 306 306 306 305 306 305 304 303 302 301 300 300 300 300 299 299 299 299 298 298 298 298 298 298 298 298 298 297 297 297 296 295 295 295
314 314 314 314 313 313 313 312 311 312 313 314 314 313 313 313 312 311 312 312 311 312 315 315 313 311 311 311 311 311 311 311 311 312 312 312 313 313 312 312 312 312 312 311 311 310 307 307 308 308 307 306 307 307 306 306 305 304 303 302 302 301 300 300 300 300 300 299 299 299 299 298 298 297 298 298 298 298 298 297 298 297 296 295 295 294
317 318 315 311 312 312 312 312 312 313 313 314 314 313 313 312 312 313 313 314 312 312 316 316 312 310 310 311 311 311 311 311 311 312 312 312 313 313 312 313 312 312 312 311 312 311 309 307 306 305 305 305 306 306 305 305 304 303 303 302 301 301 300 300 300 300 300 299 298 298 298 298 297 297 297 297 297 297 298 297 297 297 296 296 294 294
315 320 317 312 312 313 313 314 313 314 313 314 314 313 313 313 313 313 313 315 314 313 315 314 311 312 313 312 312 311 310 310 310 311 311 312 312 312 312 312 312 312 311 311 312 311 311 312 306 303 305 305 304 304 305 304 304 303 302 302 301 301 300 300 300 299 299 298 298 297 297 297 296 296 296 296 296 296 297 297 297 297 296 296 295 293
313 316 316 314 315 314 314 314 315 316 314 313 315 314 313 313 313 313 314 314 315 317 316 314 314 316 317 316 315 315 312 311 311 310 310 310 310 311 311 311 311 311 311 311 311 310 311 312 307 302 303 304 302 304 305 305 304 303 302 301 301 300 300 300 299 299 299 298 298 297 297 296 296 295 295 296 296 296 296 296 296 296 296 296 295 294
313 314 313 315 317 317 315 315 315 315 313 314 319 320 315 313 314 315 315 314 318 321 316 314 317 317 316 316 318 318 316 314 313 312 311 311 311 311 312 312 311 311 311 311 311 312 310 311 310 305 302 302 303 305 305 304 304 303 302 301 300 300 300 299 299 299 299 298 298 298 297 297 296 296 296 297 296 296 296 296 296 296 296 295 295 295
315 313 313 313 314 317 317 315 315 313 314 316 319 323 321 317 317 315 314 315 318 319 315 316 317 317 316 315 316 318 316 316 314 313 312 311 311 312 312 312 312 312 312 312 313 312 311 311 311 306 302 304 306 306 304 303 303 303 302 301 300 300 299 299 299 299 298 298 298 298 298 297 297 297 297 296 296 295 295 295 295 295 295 295 295 295
315 314 316 315 313 316 316 315 317 314 314 317 316 318 320 319 317 317 317 318 317 316 316 316 315 318 319 315 315 315 314 316 314 313 313 311 312 312 312 312 312 312 311 312 312 310 311 311 307 303 303 306 306 304 303 303 303 302 301 300 300 299 299 299 299 299 299 298 298 298 298 297 298 298 297 296 295 295 295 294 294 294 294 294 294 294
313 313 315 316 315 315 313 315 320 317 315 317 315 316 319 320 320 319 319 319 320 319 317 316 315 318 319 316 317 315 314 318 315 313 312 311 312 312 312 313 312 313 313 312 311 310 311 307 303 303 304 304 303 302 303 302 302 301 300 300 299 299 299 298 299 298 298 298 298 298 297 297 297 297 296 296 295 295 294 294 294 294 294 294 294 293
311 310 311 314 315 314 314 314 314 315 315 313 315 320 322 323 322 322 323 320 319 319 318 320 317 316 318 318 319 318 317 318 316 315 315 314 315 313 312 313 312 312 313 313 311 314 314 304 300 302 302 301 301 301 301 301 301 300 299 299 298 298 298 298 298 298 298 298 298 298 298 297 297 296 296 295 295 294 294 294 293 293 293 293 294 293
311 309 312 316 317 315 315 313 310 312 312 312 318 323 321 322 322 323 324 320 318 320 320 321 317 315 317 316 316 317 317 316 315 317 320 321 321 316 313 312 312 312 312 312 311 315 320 311 305 303 299 299 300 299 300 300 300 300 299 298 298 297 298 298 297 298 298 298 298 298 298 298 297 297 296 295 295 294 294 293 293 292 292 292 293 293
316 315 314 313 315 314 313 315 315 313 311 312 318 318 316 321 321 321 323 319 319 321 317 315 314 313 315 315 315 316 317 317 314 314 317 321 323 319 315 312 313 314 311 311 312 317 323 319 313 307 299 296 297 298 299 299 298 299 298 298 297 297 297 297 297 297 297 297 297 298 297 297 297 296 296 296 295 294 294 293 293 292 292 292 292 292
319 319 314 310 313 315 313 315 316 316 314 313 316 318 318 320 320 321 324 320 319 320 315 312 315 315 315 317 318 315 313 316 314 312 313 316 318 318 315 312 314 314 310 313 321 325 327 323 317 307 297 295 296 297 297 298 298 298 297 297 297 297 297 297 297 297 297 297 297 297 297 297 296 296 296 296 295 295 294 294 293 293 292 292 292 292
317 319 318 314 316 316 313 312 316 320 317 312 315 319 318 321 324 323 325 323 320 321 316 311 315 320 318 317 319 316 315 317 318 317 314 312 313 314 313 313 315 313 312 318 327 329 332 332 320 304 296 296 296 296 296 297 297 297 297 297 297 297 297 296 296 296 297 297 297 296 296 296 296 296 296 296 295 295 294 294 294 293 293 292 292 292
316 319 320 316 315 314 313 313 315 319 317 313 316 319 315 319 324 320 322 323 318 318 317 313 318 322 317 313 315 315 315 315 318 318 313 312 314 314 314 316 315 313 314 318 324 328 333 331 314 298 295 297 296 296 296 296 297 297 297 297 297 297 297 297 296 296 296 296 296 296 296 296 296 296 296 295 295 295 295 294 294 293 293 293 292 292
317 321 320 314 312 313 312 313 313 316 318 314 314 317 315 316 319 317 321 322 316 315 317 315 318 318 315 315 316 317 316 314 317 315 312 314 315 313 314 316 314 315 318 318 320 323 325 324 311 297 295 297 295 296 296 296 297 297 297 297 297 297 297 296 297 296 296 296 295 296 296 296 296 295 296 295 295 295 294 294 294 294 293 293 292 292
317 318 318 314 313 312 310 311 314 314 314 315 317 317 313 314 316 317 321 321 316 317 317 316 317 316 316 319 318 319 318 318 321 318 315 317 319 318 319 319 319 321 322 322 323 324 324 327 317 298 294 297 296 296 296 296 297 296 297 297 296 296 296 296 296 296 296 295 295 295 295 295 295 295 295 295 295 294 294 294 294 293 293 293 292 292
317 315 318 317 315 314 312 312 315 313 309 312 317 315 313 316 318 317 319 319 317 317 319 318 318 315 315 317 316 317 317 318 321 318 316 317 317 320 322 322 325 328 327 325 327 330 330 329 314 297 294 297 297 297 297 297 296 296 296 296 296 296 296 296 296 295 295 295 295 296 295 295 295 295 295 295 295 294 294 294 293 293 293 292 292 291
317 314 317 318 314 314 314 314 317 317 312 311 311 312 313 315 317 317 319 319 318 317 319 319 319 316 316 316 316 318 319 318 318 317 319 320 318 319 320 320 324 326 324 323 323 322 321 318 305 296 297 298 297 298 297 296 297 296 296 296 296 297 296 296 296 295 295 296 296 296 295 295 295 295 295 294 294 294 294 294 293 293 292 292 291 291
318 316 317 320 318 316 316 317 320 320 317 315 313 313 313 312 316 317 315 317 317 316 317 319 318 318 319 317 315 316 316 314 315 318 320 320 316 314 316 317 318 317 317 319 319 315 314 316 307 296 297 300 298 297 297 296 297 296 296 297 297 297 296 296 296 296 296 296 295 295 295 295 295 294 294 294 293 293 293 293 293 292 292 291 291 291
323 320 319 322 321 319 319 320 321 319 317 316 315 315 314 313 316 316 315 317 317 315 316 318 317 319 322 319 314 313 312 311 316 319 317 315 313 312 313 313 313 312 312 313 314 311 313 321 315 299 297 299 298 297 297 296 297 296 297 297 297 296 296 297 297 297 297 296 295 295 295 295 295 294 294 293 293 293 292 292 292 292 291 291 291 291
321 319 318 319 320 320 320 318 318 316 314 314 313 314 314 313 313 315 316 317 317 316 317 318 317 321 323 319 314 314 313 312 314 314 312 312 312 312 312 312 312 312 311 310 311 309 311 316 312 300 297 298 297 298 297 296 296 296 297 297 296 296 297 297 297 297 296 295 294 295 294 294 294 293 293 293 293 292 292 292 292 291 291 290 290 290
317 317 318 319 319 319 319 317 316 314 313 314 313 312 313 313 313 314 315 315 316 317 318 319 319 321 324 322 316 315 314 313 313 312 311 312 311 311 312 312 312 313 311 311 311 309 308 309 307 305 305 300 296 297 297 296 296 295 295 296 295 296 297 297 296 296 295 295 295 295 294 293 293 293 293 293 292 292 292 292 291 291 290 290 290 289
317 318 319 319 319 319 318 318 318 315 313 314 315 313 313 313 314 314 315 315 316 316 317 319 318 319 322 321 317 314 314 313 312 312 312 313 312 311 312 312 313 314 312 310 308 306 306 306 305 307 307 300 296 298 297 296 296 295 295 295 295 296 297 296 296 296 295 295 295 294 293 293 293 292 292 292 292 293 292 292 291 290 290 289 289 289
316 318 319 319 319 319 317 317 320 320 316 313 314 314 314 313 314 315 315 316 316 316 317 318 317 317 317 317 315 314 313 312 312 312 312 312 312 312 313 313 312 311 308 305 303 302 303 303 303 303 301 298 297 298 297 297 297 296 296 295 295 295 296 296 296 295 295 295 294 294 293 293 293 292 292 292 292 292 292 291 290 290 289 289 289 288
314 316 318 318 318 318 317 316 318 320 318 315 315 316 315 314 314 314 315 315 316 316 315 316 316 316 316 315 314 313 312 312 312 312 312 312 313 314 313 310 306 303 301 300 300 299 299 299 299 299 298 296 297 297 297 298 298 297 297 297 297 296 296 296 295 295 295 295 294 294 293 293 293 292 293 292 292 292 291 290 290 289 289 288 288 288
312 314 315 316 316 317 317 317 317 317 317 316 316 315 315 315 314 314 314 314 314 316 315 315 315 316 315 315 314 313 312 312 312 312 312 311 310 308 306 303 300 299 299 299 299 298 298 298 298 298 297 295 296 297 297 297 298 298 298 298 298 298 297 297 295 294 295 294 294 294 293 293 293 293 293 292 291 291 290 290 289 289 289 288 287 287
312 312 313 314 314 315 315 315 315 316 315 315 315 315 315 315 316 315 314 314 314 315 314 314 314 315 314 313 313 313 312 312 311 309 307 305 302 300 300 299 299 299 298 298 298 298 298 298 297 297 296 295 295 296 296 297 297 298 298 298 298 298 298 298 296 295 294 293 293 294 293 293 293 292 292 291 291 291 290 290 289 289 288 287 287 287
310 311 312 312 313 313 313 313 313 313 313 313 314 314 314 314 315 315 315 314 314 314 314 313 313 314 313 312 312 311 308 306 305 302 300 299 298 298 298 298 298 298 298 297 297 297 297 297 296 296 296 295 294 295 295 296 296 297 297 297 298 298 298 298 296 295 294 293 293 293 293 293 292 292 292 291 291 290 290 289 289 288 287 287 286 286
310 311 311 310 310 310 311 312 313 312 312 312 312 313 312 312 313 313 313 313 313 314 313 313 314 314 311 308 305 303 301 300 300 299 298 297 297 297 297 297 297 297 297 297 296 296 296 296 296 296 296 295 294 294 295 295 295 296 296 296 296 297 297 297 296 295 294 294 294 293 293 292 292 292 291 291 291 290 289 289 288 287 287 286 286 286
307 308 308 308 308 309 309 310 312 312 312 312 312 312 312 312 311 311 312 312 313 313 313 314 314 311 305 301 300 299 299 299 299 299 297 296 296 296 296 296 296 296 296 296 296 296 296 296 296 295 295 294 294 294 294 294 295 295 295 295 295 295 296 296 296 295 294 294 294 293 292 292 292 291 291 291 290 289 289 288 287 287 286 285 285 285
305 305 306 307 307 308 308 309 310 310 310 310 310 311 311 311 311 311 311 310 308 309 310 309 305 302 300 299 298 298 298 298 299 298 297 295 294 294 295 295 295 295 295 295 295 295 295 295 295 294 293 293 294 294 294 294 294 293 293 293 294 294 294 294 294 294 294 294 293 293 292 292 291 291 291 290 290 289 288 287 287 286 285 285 285 284
303 304 305 306 306 307 307 307 308 307 308 307 307 308 308 308 308 308 304 300 299 300 301 300 298 298 299 298 296 297 297 297 298 298 296 294 293 293 293 294 294 294 294 294 294 294 294 294 293 293 293 293 294 294 294 293 293 292 292 292 293 293 293 293 293 293 293 293 292 292 292 291 291 291 290 290 289 288 287 287 286 286 285 285 284 284
301 302 303 303 304 304 304 305 305 304 305 305 302 301 301 300 300 300 297 293 294 296 296 296 297 297 297 296 295 295 296 296 297 299 296 293 293 293 292 293 293 293 293 293 293 293 293 293 293 292 293 293 294 294 293 293 293 292 291 292 292 293 292 292 292 292 291 291 291 291 291 290 290 290 289 289 288 287 287 286 285 285 284 284 284 283
301 301 301 302 302 302 302 302 302 301 302 304 300 297 298 297 296 298 297 294 293 294 295 296 296 295 294 295 294 294 295 294 295 298 296 292 292 292 292 293 293 293 293 292 292 293 293 293 292 292 293 293 293 293 293 293 292 291 291 292 292 292 291 291 291 291 291 290 290 290 289 289 289 289 288 288 287 286 286 285 285 284 284 283 283 283
301 301 302 301 302 302 301 301 300 301 303 304 299 296 296 296 295 297 299 297 293 294 295 295 295 294 293 294 293 293 293 292 292 295 295 292 292 292 292 293 293 293 292 291 292 292 292 292 293 293 293 293 292 292 292 292 292 291 290 291 292 291 291 291 291 291 290 289 289 289 288 289 288 288 288 287 286 285 285 284 284 284 283 283 282 282
301 301 302 302 303 303 303 303 303 304 304 300 295 294 295 296 295 295 298 297 294 294 295 294 294 294 293 293 293 292 292 291 290 292 292 291 291 292 292 292 292 291 291 290 291 291 291 292 292 292 292 292 291 292 292 291 291 291 290 291 291 291 291 291 291 290 290 289 289 289 288 288 288 287 287 286 285 285 284 284 283 283 282 282 282 281
300 300 300 301 302 302 302 303 302 303 303 297 292 294 296 296 295 295 298 299 295 293 295 295 294 294 293 293 293 291 290 290 290 290 290 290 290 291 291 291 290 290 290 289 290 290 290 291 291 291 290 290 290 290 290 290 291 291 290 291 290 290 291 291 291 290 290 289 289 289 288 288 287 287 286 286 285 284 284 283 283 282 282 282 281 281
299 299 298 297 297 297 299 299 299 301 301 295 292 294 295 293 293 296 299 298 293 291 294 295 294 294 293 293 293 291 290 290 290 289 290 290 290 290 289 289 289 289 288 288 289 289 289 289 289 289 289 289 289 288 289 289 290 290 290 290 290 290 291 291 291 291 290 290 289 289 288 288 287 287 286 286 285 284 283 283 282 282 281 281 281 281
297 298 297 296 295 295 297 297 296 298 297 292 291 293 293 292 294 296 296 294 289 290 295 295 295 294 292 292 292 291 290 290 290 289 289 289 289 289 288 288 288 288 288 288 288 288 288 288 287 287 286 286 286 286 287 288 289 289 289 289 290 290 291 291 291 291 291 290 290 289 288 288 287 286 286 285 284 284 283 282 282 281 281 280 280 280
296 296 296 297 296 296 297 296 295 296 295 292 291 292 292 293 294 293 292 291 291 293 296 295 295 294 292 292 292 291 289 289 289 289 289 288 288 287 287 287 287 286 286 286 286 286 286 286 285 284 284 284 284 284 285 286 286 286 287 288 289 290 290 291 291 290 290 290 290 289 288 288 287 286 285 285 284 283 282 282 281 281 280 280 279 279
296 294 294 296 295 293 293 293 293 294 294 292 291 290 291 292 292 290 291 293 294 296 295 294 294 293 292 292 292 290 289 288 288 287 287 287 286 286 285 285 285 284 284 284 284 284 284 283 283 282 282 281 282 282 283 283 284 284 285 286 287 288 289 290 290 290 289 289 290 289 289 288 287 286 285 284 284 283 282 281 281 280 279 279 278 278
294 292 291 292 293 292 291 292 292 292 292 291 290 289 289 291 290 290 291 293 294 295 294 293 293 292 291 291 290 289 288 288 287 287 286 285 285 284 284 283 283 282 282 282 283 283 282 281 280 280 279 279 280 280 281 281 281 282 283 284 285 287 289 289 289 289 288 288 288 289 288 288 287 285 285 284 283 282 282 281 280 279 278 278 277 277
292 292 291 291 292 292 292 292 292 291 290 290 289 289 289 290 291 292 293 293 293 294 293 291 291 290 289 289 288 287 287 286 285 285 284 283 283 283 282 281 281 280 280 281 281 281 280 279 278 278 278 278 278 279 279 279 279 280 281 281 283 285 287 286 286 286 286 287 287 287 288 287 286 285 284 283 283 282 281 280 279 278 277 277 277 276
291 291 290 290 290 290 290 290 290 289 290 290 289 289 289 289 290 292 293 293 292 292 292 291 290 289 288 286 285 285 284 284 283 282 282 281 281 281 280 280 279 279 279 279 280 279 278 277 276 276 277 277 277 277 277 276 277 278 278 279 281 283 283 282 281 282 283 285 286 286 286 286 285 285 284 283 282 282 281 279 278 277 277 276 276 276
290 290 289 289 289 289 289 289 289 289 289 289 288 288 289 288 288 290 292 292 291 290 290 289 288 287 285 284 283 282 281 281 281 280 280 280 279 279 279 278 278 278 278 278 278 277 276 275 275 275 275 275 275 275 275 275 275 276 277 278 280 280 278 277 278 279 280 282 284 285 285 285 284 284 283 282 281 281 280 279 278 277 277 276 276 276
289 290 289 289 289 289 288 288 288 288 288 288 288 288 288 288 288 289 290 290 289 288 287 286 285 284 283 282 281 280 279 279 279 278 279 278 278 277 277 277 277 277 277 277 276 275 274 273 273 273 273 273 273 273 273 273 274 275 276 276 276 275 274 274 275 277 278 279 281 283 284 284 284 283 282 281 281 280 279 278 278 277 277 277 277 276
289 289 289 289 288 288 288 288 288 288 288 288 288 288 287 287 287 287 287 286 286 286 285 283 282 281 281 280 279 278 278 278 278 277 277 277 276 276 276 275 275 275 275 275 274 274 273 272 272 272 271 271 271 271 271 272 272 273 273 272 271 271 271 273 274 275 276 278 279 282 284 283 283 283 282 281 280 280 279 279 278 278 278 278 277 277
288 288 289 289 288 288 288 287 288 287 287 288 288 288 287 287 287 287 286 285 284 284 283 282 280 279 279 278 277 277 277 277 276 276 276 275 275 275 274 274 274 274 274 273 273 272 272 271 271 270 270 270 270 269 270 270 270 269 269 269 269 269 270 271 273 274 275 277 278 280 282 283 282 282 281 281 280 279 279 279 278 278 278 277 277 277
288 288 288 288 288 288 288 288 288 287 287 287 287 287 287 287 286 286 285 283 282 280 279 279 278 278 277 276 276 276 276 275 275 275 274 274 274 273 273 273 273 273 272 272 271 271 270 270 269 269 268 268 268 268 268 267 267 267 267 267 267 268 269 270 272 273 275 276 278 279 281 282 282 281 280 280 280 279 278 278 277 277 277 277 277 277
Wind_Speed
3 3 3 6 11 13 12 13 16 17 11 7 4 6 8 8 10 10 12 12 4 5 10 10 15 17 14 15 15 15 13 13 17 17 15 14 13 13 14 17 17 16 18 21 23 23 23 23 23 24 27 30 32 34 35 37 40 42 42 42 43 43 42 43 43 43 43 42 40 39 40 42 43 43 43 43 44 43 43 42 42 42 41 40 39 38
2 6 8 13 17 13 11 12 13 10 6 6 6 8 8 7 13 13 13 16 4 2 10 10 15 19 16 15 14 14 13 14 18 19 18 17 15 13 15 20 19 15 16 17 20 21 18 18 19 21 25 27 30 33 35 38 41 42 41 42 43 42 43 46 47 47 47 47 46 45 46 46 45 45 46 46 46 45 43 43 42 42 41 41 40 39
3 6 12 17 13 6 6 5 4 6 6 7 5 6 8 6 10 12 11 14 4 2 8 9 14 18 14 15 13 14 16 15 16 19 20 18 15 15 17 19 18 16 16 16 18 17 12 14 18 20 23 28 30 32 35 38 39 39 40 41 41 42 44 46 47 47 47 47 46 44 43 43 41 42 45 44 44 44 43 43 43 42 42 42 41 40
5 6 13 15 8 4 8 5 3 4 5 6 6 6 8 5 7 9 6 7 4 3 7 9 13 14 11 14 13 15 19 15 15 19 19 17 16 19 20 17 17 17 17 17 17 15 8 9 14 17 21 25 28 29 32 35 36 38 41 42 42 43 44 45 45 46 44 41 40 37 34 35 34 34 38 37 37 41 42 43 43 43 43 42 41 40
9 7 8 8 7 8 10 7 5 6 7 9 9 8 10 10 12 12 5 6 6 4 6 8 14 12 9 12 12 12 14 13 14 16 16 17 19 19 17 16 16 18 18 17 17 16 9 6 11 16 20 22 25 28 31 35 37 38 40 41 42 42 43 44 45 44 41 38 36 33 27 27 27 26 29 32 34 39 42 44 45 45 44 42 41 41
11 6 4 5 7 9 9 8 8 8 9 10 8 12 17 16 13 12 8 7 6 5 4 3 8 10 5 10 10 8 7 10 10 12 16 19 19 15 13 15 16 16 16 15 15 16 13 8 9 13 17 20 24 29 32 34 36 37 38 39 40 41 42 43 44 44 42 40 39 37 32 30 28 26 30 37 40 42 44 45 45 45 44 44 43 42
6 4 6 8 8 8 7 7 8 11 9 10 6 12 17 13 10 11 8 4 2 4 3 2 1 10 6 6 10 9 7 10 10 11 16 18 15 11 11 14 13 12 12 12 12 14 14 10 7 10 16 20 25 30 31 31 33 35 36 38 40 41 42 43 44 44 44 42 42 42 40 39 37 35 38 43 41 42 44 43 44 45 45 45 45 44
4 3 4 7 7 6 6 7 9 12 8 7 5 9 11 9 9 8 5 4 4 3 3 2 4 6 13 7 10 11 10 11 12 14 16 15 13 13 14 14 13 13 12 10 11 14 13 9 7 10 16 22 27 28 28 29 32 35 36 38 41 41 42 43 44 46 46 45 44 44 43 41 42 42 41 39 37 38 41 41 42 43 45 45 45 44
4 4 6 6 5 5 8 8 7 12 8 6 3 5 7 7 6 5 5 5 1 4 4 4 5 2 13 8 4 5 8 10 14 16 15 14 14 15 14 14 14 13 11 10 12 14 11 7 9 14 18 22 25 25 26 29 32 33 35 37 39 40 41 43 45 47 47 47 46 45 43 41 42 41 37 34 35 35 37 39 40 41 43 44 44 44
1 4 6 8 5 6 8 5 7 13 9 4 6 5 4 4 3 5 4 3 2 5 5 6 6 2 12 9 3 2 3 8 12 12 12 12 13 13 12 13 13 11 11 12 11 11 9 7 10 15 16 17 20 21 24 26 29 31 33 35 38 40 41 42 45 47 48 47 46 45 44 42 40 37 33 31 33 34 35 38 40 40 42 44 45 45
4 1 3 5 4 5 3 1 3 8 5 1 5 5 6 4 4 4 1 3 2 7 6 10 12 6 7 6 4 3 4 7 8 6 8 10 11 13 12 12 13 10 10 11 7 6 7 7 8 10 12 13 14 18 21 24 27 30 32 35 37 38 39 41 44 46 47 47 47 46 46 45 41 38 36 34 34 36 37 39 40 41 42 43 45 45
4 1 2 3 2 3 4 2 2 1 1 2 3 3 3 4 4 5 4 3 2 8 5 9 12 9 8 6 1 4 7 6 7 6 8 10 11 12 11 10 11 9 9 8 8 7 7 6 5 6 9 11 13 17 20 23 27 29 32 34 35 36 37 40 42 45 46 47 47 47 47 47 44 41 40 40 38 39 40 40 39 39 39 41 43 44
3 5 4 2 2 5 5 2 4 5 2 3 3 2 0 4 3 3 3 1 3 8 4 6 7 5 11 9 4 8 10 9 8 8 9 9 10 11 11 9 8 8 7 6 7 7 6 6 5 5 7 9 13 17 21 23 27 29 31 33 35 36 38 39 41 44 45 46 48 48 47 46 43 41 42 42 40 40 41 40 39 39 40 40 42 44
4 5 1 1 4 5 8 5 3 2 4 6 5 5 4 2 2 4 4 2 5 7 2 3 5 4 10 7 7 12 13 10 7 8 11 10 10 11 10 8 9 10 8 5 6 6 5 5 5 6 8 9 12 15 19 23 27 29 31 34 36 36 38 39 41 44 45 48 49 47 46 43 41 41 42 41 40 40 40 40 41 42 42 43 45 46
4 7 3 6 3 5 10 10 8 4 4 6 5 5 5 5 4 4 4 4 7 5 2 1 4 5 5 3 6 10 9 7 6 7 8 8 9 9 8 9 10 11 8 5 6 7 6 7 6 7 10 13 14 15 18 22 26 29 31 35 36 36 38 40 41 43 46 47 46 43 43 42 41 42 41 41 41 40 40 41 41 42 43 44 45 45
4 9 6 3 1 7 9 6 4 5 1 3 3 4 4 5 4 3 6 6 5 4 3 3 4 5 5 5 7 7 8 8 8 8 6 8 9 6 7 10 9 9 8 7 7 8 9 7 5 7 10 13 15 17 20 23 27 30 32 34 36 38 39 41 42 44 45 44 41 41 42 42 41 41 41 42 42 41 41 42 42 42 42 43 42 42
4 7 4 1 2 4 5 3 1 4 3 1 3 3 4 2 5 3 6 3 1 4 6 6 8 6 5 9 7 3 4 6 8 9 7 8 9 7 7 9 8 9 9 8 7 8 9 7 6 8 11 13 14 17 21 25 29 31 31 33 36 35 36 40 44 44 43 41 40 41 43 43 43 43 44 44 43 41 40 40 41 41 41 42 41 41
4 8 6 2 2 3 2 1 2 1 3 4 3 5 2 1 2 2 2 2 2 7 7 7 14 11 6 9 6 6 9 9 7 7 6 6 7 6 7 8 8 9 9 9 9 8 8 7 6 8 10 13 15 17 20 23 26 27 28 31 33 34 36 39 41 41 40 40 40 42 43 45 46 46 46 45 43 41 40 40 42 42 42 42 42 41
1 5 7 2 2 3 3 2 3 4 2 4 3 2 2 1 3 2 2 2 5 9 5 6 13 11 7 10 9 7 9 9 7 7 6 7 6 6 7 8 9 8 7 8 8 8 7 6 6 6 7 10 14 17 20 21 22 24 26 27 28 31 34 34 35 37 38 40 41 43 44 45 45 45 46 45 43 42 42 44 44 43 43 42 42 41
1 2 5 1 3 1 4 1 2 3 2 1 2 3 1 3 4 3 3 2 4 8 7 7 9 7 7 9 9 8 8 7 7 7 6 7 6 6 7 8 9 8 7 7 7 8 8 7 5 3 4 9 13 16 18 20 22 25 26 27 28 30 31 30 32 35 38 41 43 43 43 44 46 47 46 45 43 43 45 45 44 43 43 42 41 42
2 2 5 2 1 2 2 3 5 4 2 2 2 3 3 3 1 1 2 2 3 7 7 7 8 7 5 6 7 8 6 5 6 5 6 7 8 8 7 7 8 7 7 7 6 8 8 7 5 7 7 8 12 15 18 20 22 24 27 31 33 33 33 34 35 37 41 43 44 45 45 46 47 47 46 43 42 43 44 43 43 44 43 42 42 43
1 2 2 2 4 6 7 6 7 6 5 4 4 4 5 5 3 5 6 5 4 6 7 8 9 6 3 7 11 9 6 5 6 6 6 8 10 12 11 10 10 9 9 8 7 7 7 7 7 9 10 9 12 15 18 20 22 25 30 34 36 35 37 39 40 42 45 44 42 44 46 45 44 42 42 41 41 42 42 42 43 43 42 42 43 44
2 2 2 5 7 10 12 9 6 7 6 5 5 5 6 6 5 7 9 7 5 5 5 7 10 6 5 10 16 15 13 11 7 7 8 10 11 13 15 15 14 14 15 15 13 11 8 7 7 8 10 11 13 16 18 20 23 27 32 34 34 35 40 42 41 42 41 39 40 43 43 42 40 39 39 41 42 43 43 43 42 42 43 43 43 43
3 3 3 7 6 6 10 12 9 6 5 5 6 8 10 10 10 10 8 6 6 6 5 8 9 4 5 9 13 15 17 17 12 11 11 10 9 9 11 13 12 12 15 18 17 15 12 10 9 9 9 10 13 17 18 21 24 26 29 30 31 36 41 40 38 37 36 38 41 42 40 40 40 39 40 42 43 45 46 44 42 43 43 43 43 43
3 3 4 5 5 5 6 8 8 5 5 5 8 10 11 13 14 12 7 3 6 9 10 11 10 5 5 7 10 14 18 18 18 16 12 8 8 8 9 9 10 11 12 13 13 13 12 11 10 9 9 10 14 16 17 19 22 24 27 29 31 35 38 36 35 36 36 38 40 40 40 41 40 40 42 44 46 47 47 45 44 43 43 43 44 44
3 4 5 5 7 9 10 8 5 2 3 3 5 9 12 13 15 12 7 6 8 10 12 12 10 9 8 8 10 15 18 20 21 20 15 11 10 10 9 7 7 7 8 10 11 11 11 11 11 11 11 14 18 19 19 19 20 22 24 27 29 32 34 33 33 34 36 37 39 40 41 41 41 42 44 47 48 48 46 45 44 43 43 44 45 45
1 3 6 10 12 12 13 12 8 4 3 4 5 9 10 10 12 10 7 9 10 10 12 13 13 14 12 11 14 18 19 20 20 21 20 15 10 9 8 6 7 8 9 10 11 12 12 13 13 14 14 17 22 24 26 26 26 25 26 27 29 28 30 31 31 32 35 38 39 39 40 41 42 44 46 48 47 44 42 42 43 42 43 43 44 44
1 3 7 13 15 14 15 17 16 14 13 12 12 12 11 10 11 10 11 13 12 12 13 12 13 16 13 11 15 19 20 19 19 20 20 15 11 9 8 10 12 11 11 11 12 13 13 13 14 14 14 18 23 26 28 29 29 28 27 30 32 30 30 30 28 30 34 36 38 39 41 41 42 44 46 44 41 39 39 40 41 42 42 42 43 44
2 5 7 12 15 15 16 18 18 17 16 15 15 16 16 16 16 16 18 18 14 14 15 13 14 18 15 13 16 18 17 17 15 14 14 16 16 14 13 13 13 13 13 13 13 13 12 12 13 13 14 18 23 27 29 30 32 33 33 35 38 37 36 33 29 30 33 34 36 40 41 40 40 42 41 38 37 38 39 40 41 42 42 43 44 44
3 4 5 9 13 13 14 16 17 18 18 17 16 15 15 17 18 19 20 19 18 19 19 18 21 23 17 14 13 11 10 10 11 12 14 16 14 14 14 14 13 13 13 13 13 13 12 12 13 13 13 16 21 25 27 29 32 35 36 38 39 40 40 35 31 33 32 32 36 39 38 37 37 37 36 36 37 39 39 40 40 41 42 42 42 42
3 3 5 6 8 10 12 13 14 15 15 16 16 14 15 16 18 18 17 17 18 21 22 23 24 18 9 9 8 9 11 11 12 13 12 12 12 13 13 13 12 12 12 12 13 13 13 13 13 14 13 15 19 23 25 27 30 32 33 35 37 39 40 36 33 33 32 34 38 38 35 34 34 34 34 36 38 38 38 39 39 40 40 40 40 41
3 4 6 8 8 9 11 13 14 13 13 14 15 16 18 18 16 16 16 16 17 19 21 21 16 7 7 10 9 10 12 12 11 10 9 10 12 12 12 12 12 12 12 12 12 13 14 13 13 13 13 16 20 23 25 27 28 28 30 33 36 38 38 36 33 33 33 36 37 35 33 33 33 33 35 36 37 38 38 38 38 38 39 40 41 41
4 5 5 6 7 8 9 13 13 11 11 12 12 13 16 17 16 16 15 13 10 10 10 9 5 3 6 9 11 13 14 13 11 7 6 9 11 12 12 11 11 11 11 12 12 12 13 12 11 13 15 18 21 23 25 26 26 28 30 32 34 36 36 35 32 32 33 34 33 32 32 31 31 33 35 36 37 37 36 37 38 39 40 41 40 40
7 7 6 6 7 8 11 13 11 9 12 11 5 3 4 5 6 6 4 4 6 6 3 1 1 5 7 10 11 12 11 11 11 4 4 8 9 11 12 12 12 12 11 11 11 12 11 11 12 16 19 21 24 26 27 27 27 31 34 34 34 34 34 34 32 29 30 31 30 29 29 29 30 32 34 34 34 34 35 37 39 39 39 39 39 41
10 9 7 5 6 8 9 10 10 11 10 4 4 5 3 4 6 5 5 6 7 6 6 5 5 8 10 9 8 8 9 10 9 4 1 8 11 11 13 13 12 13 13 13 13 13 12 12 14 18 21 23 26 28 28 30 32 35 38 37 34 33 33 33 32 30 28 27 27 25 25 26 28 29 29 29 31 33 35 37 37 37 38 39 40 42
10 8 6 5 6 6 5 7 11 11 6 2 5 6 4 4 6 4 4 6 7 6 6 6 6 7 8 7 6 7 9 11 8 4 0 10 13 11 11 12 12 13 12 13 14 14 15 16 16 19 21 24 27 28 27 29 32 34 36 36 33 32 33 31 30 31 29 27 25 22 21 22 24 25 25 26 28 31 33 35 35 36 37 36 37 37
10 8 5 5 6 6 7 8 10 11 9 3 0 5 3 1 3 3 1 3 5 3 2 3 4 5 6 5 6 7 8 9 8 3 2 8 10 9 10 10 11 11 12 14 16 18 20 22 21 22 23 24 26 27 28 30 32 32 32 32 31 32 32 29 28 29 28 26 25 22 19 19 21 22 23 24 27 30 31 31 32 32 33 32 32 33
8 8 7 6 5 5 8 8 7 8 7 2 3 4 4 5 5 5 5 1 3 1 3 2 1 3 4 4 5 7 8 9 9 6 4 7 10 9 9 10 10 11 14 16 19 22 23 23 23 24 24 25 26 27 29 32 32 30 29 29 30 31 30 27 28 30 29 27 26 24 21 20 20 21 22 24 27 28 27 28 28 29 31 32 32 32
1 3 5 5 4 4 7 6 5 6 3 2 3 7 6 8 7 5 4 3 4 1 5 3 2 1 1 2 3 4 7 8 9 8 8 11 11 10 10 11 10 12 17 19 20 21 22 23 24 24 25 24 25 28 32 34 33 29 27 27 28 28 27 27 30 32 30 28 27 25 22 20 20 21 22 24 26 26 25 26 27 28 29 31 31 31
5 3 2 4 5 6 7 7 5 4 2 2 4 6 7 7 3 2 6 3 2 2 4 4 3 4 2 2 2 2 4 6 8 10 11 12 12 10 10 12 12 13 16 18 20 21 23 23 22 23 24 24 26 30 32 33 32 28 27 28 27 25 26 29 33 34 32 29 27 24 22 20 19 20 22 24 24 24 24 25 26 27 28 29 29 29
2 2 3 4 6 8 8 8 5 3 2 2 4 6 6 4 1 3 7 4 4 5 4 5 4 5 2 2 3 2 4 6 8 12 13 12 12 12 12 13 15 16 18 20 22 23 23 22 22 23 24 25 28 31 32 31 30 29 28 28 25 25 29 33 35 36 34 31 28 25 22 20 19 19 20 22 22 21 22 24 25 27 28 28 28 28
1 2 3 3 3 4 4 4 6 5 2 2 3 6 3 2 2 5 4 2 4 6 4 5 5 5 3 3 4 4 7 8 9 11 13 13 13 12 12 13 14 16 18 20 23 23 22 22 24 25 26 26 28 29 29 30 29 29 28 27 26 29 33 35 36 36 35 32 30 26 23 20 18 18 18 19 19 20 21 22 24 26 28 28 27 27
2 1 3 2 2 2 3 4 6 6 2 3 4 5 2 1 4 6 4 2 5 5 5 5 5 5 5 5 6 6 7 8 9 10 11 13 13 13 13 13 13 14 16 19 21 22 21 22 23 25 28 29 29 28 28 28 28 29 28 26 28 33 35 36 35 35 34 32 30 28 24 20 18 17 17 18 19 20 21 22 23 25 26 27 26 26
2 2 3 4 3 3 5 6 5 4 3 4 6 5 5 5 5 4 4 5 4 4 4 5 5 6 6 5 6 7 7 8 9 9 9 11 12 12 13 13 14 15 17 19 20 20 21 22 24 27 30 31 29 29 28 27 27 29 29 28 31 33 33 33 34 34 33 32 30 28 26 21 18 17 18 18 19 21 21 23 24 24 26 26 26 25
4 4 4 4 4 5 5 6 6 5 6 9 8 6 7 8 7 5 5 6 5 5 5 4 5 6 5 5 6 6 7 8 8 8 9 10 10 11 11 13 15 17 19 21 22 21 21 22 24 28 31 33 32 29 29 28 27 28 31 32 32 31 31 32 34 33 33 32 30 29 27 24 20 18 18 19 21 22 23 24 25 24 25 26 26 25
4 4 2 2 5 6 5 7 8 7 8 10 10 8 7 7 7 6 6 7 6 5 5 4 5 6 5 4 5 5 7 8 8 9 9 8 9 11 11 12 15 18 20 21 22 23 24 24 25 26 29 34 35 31 30 31 29 29 33 36 31 29 30 34 35 34 33 32 30 29 28 25 23 20 20 21 23 25 26 27 27 26 26 26 25 24
4 4 4 5 8 7 6 7 7 6 9 11 10 9 9 9 9 7 6 7 7 6 5 5 5 5 5 5 5 6 7 8 8 9 9 7 9 11 11 11 13 16 19 21 21 23 24 23 23 24 25 31 36 33 30 33 34 32 34 35 31 30 34 37 36 34 32 32 32 30 26 25 24 22 22 22 24 25 26 27 28 26 26 26 25 23
3 3 4 7 9 7 8 10 8 9 12 11 10 10 10 12 12 9 7 6 5 5 5 4 4 4 4 5 6 6 8 9 9 8 8 8 9 10 10 11 12 15 20 24 24 24 22 21 21 23 24 29 34 33 32 34 35 34 34 34 34 36 38 38 35 32 32 33 33 30 27 26 25 24 23 24 26 27 27 28 29 29 29 31 31 29
2 1 4 6 7 7 8 11 11 11 12 11 11 12 11 10 11 9 5 4 4 5 6 5 4 4 5 6 6 6 9 11 9 7 8 9 10 10 10 12 14 17 21 23 24 24 23 23 24 24 26 30 34 34 34 34 35 36 37 38 38 36 34 34 34 33 34 35 33 30 28 26 25 26 25 25 26 28 29 30 32 32 32 32 33 32
2 7 9 6 5 7 10 12 12 10 9 9 11 12 9 6 6 6 4 4 5 6 5 5 6 6 6 7 6 6 9 11 10 8 8 10 11 12 13 14 16 20 22 22 23 24 24 25 25 25 28 33 35 34 34 36 40 43 42 38 35 33 32 33 32 32 34 33 31 30 28 25 25 25 25 25 24 25 27 29 31 32 30 28 29 31
7 11 10 6 8 11 13 14 12 7 7 10 12 10 4 2 4 6 6 4 4 3 3 5 7 8 8 7 6 6 8 11 11 9 9 11 13 16 18 17 17 18 22 24 23 23 24 26 26 26 29 34 36 36 38 41 46 48 42 34 32 32 33 32 30 28 28 27 26 27 26 24 24 24 24 25 24 23 22 22 24 27 28 25 25 26
Wind_Direction
138 161 168 191 221 225 211 198 214 230 241 253 248 244 248 260 264 256 264 267 249 278 267 249 263 267 264 264 264 269 272 272 272 268 262 261 261 264 263 263 264 261 261 269 275 268 258 254 247 239 234 228 226 225 221 216 214 214 212 208 207 205 202 198 196 196 196 196 197 199 202 206 209 211 212 214 215 216 217 217 217 216 216 215 215 214
148 192 206 215 224 223 215 214 223 239 264 264 247 262 261 247 262 261 263 271 250 220 266 260 271 272 264 265 264 267 267 260 264 268 268 265 260 261 263 264 264 261 264 272 275 270 258 252 243 232 227 220 218 218 217 215 214 213 210 207 206 202 198 199 198 196 197 198 198 199 203 206 207 208 209 211 213 215 216 217 217 217 216 215 215 215
213 221 225 226 231 244 249 231 216 231 239 245 242 266 266 247 270 268 251 266 267 191 273 274 268 270 267 265 258 256 257 249 251 258 263 266 264 262 259 262 265 265 269 270 271 274 258 239 234 225 220 218 218 218 216 214 213 209 206 207 205 200 198 199 199 198 199 201 201 202 204 204 205 207 209 211 213 213 214 216 217 217 216 215 215 215
226 236 233 233 232 241 258 248 203 250 239 220 222 247 261 250 262 264 244 280 298 218 270 285 276 273 266 263 254 246 250 249 248 252 257 261 259 257 255 259 268 268 270 270 272 277 258 222 224 221 219 220 218 218 215 212 209 206 205 205 202 200 199 198 198 199 199 199 199 201 204 204 203 206 208 209 212 213 213 215 215 217 217 216 216 216
244 241 227 224 212 209 238 246 223 255 260 227 213 224 251 247 242 252 278 338 322 268 273 293 292 282 237 239 250 242 246 249 248 251 258 259 253 254 259 263 264 263 266 269 273 277 266 224 225 225 223 222 218 217 215 212 208 206 205 203 201 199 198 197 198 197 196 195 194 195 197 197 200 203 203 204 210 211 212 213 214 215 216 216 216 216
257 241 165 175 204 202 217 235 214 212 250 255 216 210 236 247 250 261 290 340 337 301 303 327 306 295 208 198 237 248 244 247 245 246 251 255 255 258 265 263 258 258 262 264 268 274 272 247 226 227 225 220 220 221 220 215 211 207 205 202 199 198 197 197 196 195 194 193 191 189 187 187 190 195 200 205 209 209 209 212 213 213 214 215 216 216
258 232 181 200 210 194 200 239 221 196 235 271 227 207 228 243 253 259 274 310 275 259 296 69 269 288 280 198 219 235 241 247 246 242 245 251 258 260 259 260 261 260 260 262 262 265 267 253 222 226 224 218 224 227 223 217 212 208 204 200 198 197 196 195 195 193 193 192 191 192 192 192 193 197 206 210 210 209 210 211 212 213 214 215 216 216
214 225 219 217 204 177 193 242 220 180 205 266 227 196 208 221 235 233 223 223 233 273 296 155 145 273 286 249 195 210 227 244 251 247 249 254 258 258 256 258 262 260 257 260 262 261 261 249 225 229 227 225 231 230 220 214 211 207 203 199 197 196 195 195 194 194 194 194 194 195 196 198 200 204 209 210 209 211 211 210 212 213 213 214 215 216
156 206 219 191 173 185 210 227 186 157 195 252 173 160 177 191 205 166 165 199 233 339 290 210 138 222 279 270 157 203 227 241 253 248 249 255 256 257 257 257 258 261 263 258 256 262 265 246 228 233 234 234 233 225 216 212 209 205 202 198 195 195 195 194 194 195 196 197 197 197 198 201 205 208 210 209 208 210 210 209 211 212 213 213 214 216
184 218 199 163 167 214 224 226 166 163 200 225 117 97 79 88 89 107 150 156 81 313 261 190 156 192 279 280 97 78 236 236 249 250 252 255 256 260 262 265 265 266 268 260 252 259 269 260 242 240 240 239 231 220 214 210 205 201 198 195 194 195 195 194 195 196 197 198 199 200 201 203 206 207 207 207 206 207 208 208 209 210 212 212 213 214
245 222 143 167 193 203 187 76 179 181 193 149 101 59 29 26 32 59 58 89 80 282 244 180 179 180 277 284 135 159 232 232 240 254 265 263 261 263 262 264 267 264 264 272 283 291 293 288 264 244 236 231 221 212 207 203 200 197 195 194 194 195 196 196 196 197 198 199 200 202 204 205 206 204 202 203 203 204 205 206 207 208 210 211 212 213
258 209 199 222 195 141 120 89 334 354 93 99 89 60 14 328 5 29 351 55 145 263 242 180 178 175 234 261 199 264 275 259 236 236 250 256 263 268 265 263 269 274 281 307 327 322 311 296 273 248 231 217 204 198 198 198 195 194 193 193 194 195 197 197 197 198 200 201 203 205 207 208 207 205 203 203 203 203 204 205 205 205 208 209 211 212
277 220 224 265 202 164 151 166 332 356 71 126 117 124 323 310 342 353 307 95 205 255 247 171 165 196 244 255 267 270 271 257 237 230 240 248 262 271 273 277 290 300 308 324 316 301 300 293 283 272 247 218 202 196 195 194 192 192 192 192 194 197 198 199 199 201 202 204 206 208 209 210 209 207 208 208 207 207 206 206 204 204 205 206 208 210
286 266 193 138 259 189 150 173 238 268 178 160 157 162 166 207 251 259 264 274 260 266 275 164 173 245 277 272 231 236 248 254 244 237 241 247 260 272 281 296 302 296 300 310 295 292 298 285 273 264 249 231 218 206 198 194 192 191 191 193 196 199 200 200 202 203 204 207 209 210 210 211 210 210 211 212 211 211 210 208 207 208 207 207 209 210
253 284 212 169 238 179 172 202 204 161 164 185 168 147 172 191 194 219 233 248 262 276 317 218 191 229 273 273 220 229 254 277 266 247 253 265 269 279 294 293 286 287 302 326 313 299 278 254 239 236 233 226 220 211 204 199 194 193 194 196 197 199 201 202 203 205 207 210 211 211 212 212 212 213 214 215 215 215 214 212 211 211 211 211 213 213
213 267 249 202 185 159 180 224 173 123 185 234 130 114 220 207 171 221 243 234 251 291 289 235 223 230 246 269 260 254 270 279 274 275 296 298 289 301 303 286 286 298 309 312 298 284 273 263 247 237 233 227 218 208 205 203 200 199 198 199 201 202 203 203 205 208 210 212 212 213 214 214 214 215 215 217 218 217 217 216 214 215 215 215 215 214
233 268 267 48 18 172 199 269 148 155 215 212 124 188 242 174 142 223 272 282 303 266 253 242 260 278 299 288 290 338 315 291 286 288 291 289 292 303 292 282 290 294 292 288 281 277 278 276 260 243 236 231 223 213 209 208 207 205 203 203 204 205 205 206 208 210 211 212 213 215 216 216 216 216 217 218 218 218 218 218 218 218 218 218 217 216
247 277 275 207 263 260 228 312 334 345 140 133 177 220 236 49 123 167 265 316 256 246 246 243 259 279 303 283 302 2 329 306 292 285 290 296 302 300 285 281 279 276 283 288 282 277 273 268 260 249 239 231 225 221 219 217 215 213 212 210 208 207 209 211 211 211 212 213 215 217 217 218 218 218 219 219 219 219 218 219 220 220 220 219 218 216
211 275 282 245 214 289 12 25 319 334 94 148 216 244 120 211 251 164 175 225 236 248 252 228 246 265 267 264 281 294 283 283 285 292 305 307 308 309 297 291 287 287 295 293 287 291 293 290 286 275 263 253 241 231 225 221 220 220 220 220 219 217 216 217 216 215 215 216 218 220 220 220 220 220 221 220 219 218 218 220 220 219 219 219 217 216
101 220 262 188 146 337 9 91 212 300 333 152 284 328 77 191 211 193 190 187 229 251 258 238 236 246 247 256 269 256 237 252 280 294 294 282 284 291 289 292 297 300 299 297 302 309 304 291 284 311 304 277 262 249 236 225 221 222 222 223 225 225 224 224 223 221 220 220 221 222 223 223 222 222 223 221 219 219 219 220 219 219 219 218 216 215
117 215 250 252 275 305 294 206 190 208 212 176 235 263 251 230 221 256 232 180 223 250 255 253 245 239 252 271 262 237 216 231 250 252 264 280 290 285 274 269 275 283 291 294 298 299 302 303 324 3 348 294 266 254 242 231 225 223 224 224 224 225 225 225 225 225 225 224 223 223 224 224 224 223 222 222 221 221 221 220 219 219 218 216 216 215
147 219 245 291 289 272 254 216 172 172 177 175 201 226 242 242 253 273 255 212 209 240 246 254 256 248 269 292 279 259 239 244 228 220 260 293 297 290 286 279 278 287 288 281 272 276 293 311 329 347 337 304 270 253 242 235 229 225 225 226 225 224 225 225 225 225 227 226 225 226 226 226 226 224 222 222 222 222 222 221 220 219 217 216 216 215
139 131 214 244 246 254 261 253 204 192 210 231 229 228 245 242 227 245 252 241 238 249 252 259 260 242 218 261 277 279 280 283 261 232 260 280 282 287 294 298 304 308 304 302 301 300 306 317 320 320 311 293 271 260 251 241 233 229 229 228 226 225 228 229 228 227 228 227 228 230 229 228 227 225 223 222 222 223 223 222 221 219 216 215 214 214
127 110 228 252 255 258 269 275 266 232 211 243 243 223 228 234 231 238 249 257 259 257 260 262 259 233 197 240 266 279 284 289 281 263 262 270 273 277 284 293 301 299 297 300 306 316 329 331 323 311 301 287 271 261 253 246 241 238 236 233 230 231 233 232 231 231 230 230 232 232 231 230 227 225 223 223 223 223 223 222 220 218 217 214 213 212
208 193 217 253 274 271 268 276 280 256 196 225 243 230 227 231 237 249 261 272 261 246 242 255 259 242 225 247 268 279 283 285 282 277 272 271 276 272 265 270 274 275 285 298 312 327 332 326 319 314 307 300 289 278 266 259 254 249 245 240 236 236 239 238 235 234 232 232 234 233 231 230 227 224 224 223 224 224 223 221 219 218 215 213 212 211
251 228 219 240 254 259 262 259 257 239 188 216 242 232 230 229 230 242 252 245 247 238 231 245 260 256 254 263 271 275 277 279 282 285 287 283 281 279 271 269 277 294 322 335 340 340 334 332 333 331 328 323 319 316 310 301 289 277 267 258 249 244 245 244 240 238 237 235 235 234 232 230 226 225 225 225 225 224 222 219 218 216 214 212 211 209
286 257 242 246 248 251 261 265 268 278 261 261 259 237 230 229 228 235 244 245 254 258 247 247 259 264 262 264 269 271 273 278 284 287 287 286 288 292 302 338 5 9 7 1 1 360 356 355 352 347 346 342 340 338 333 326 315 302 291 282 274 265 258 254 247 242 240 237 236 235 234 230 227 226 226 226 226 224 221 218 216 215 214 212 211 208
208 259 251 254 257 258 266 273 278 280 272 265 267 262 254 251 243 241 247 252 258 266 260 253 260 267 265 259 263 267 270 273 278 284 294 313 344 2 17 30 29 22 14 12 12 9 5 2 357 355 354 350 349 347 344 340 332 322 312 302 297 292 282 274 261 249 244 240 237 237 236 233 230 228 228 228 226 223 220 218 215 214 213 212 210 209
200 256 251 254 262 262 266 272 273 274 273 267 263 262 260 258 255 252 254 256 256 260 265 270 270 269 267 258 254 260 271 281 292 310 339 5 19 28 33 31 25 17 10 9 8 3 0 358 355 353 351 351 351 349 348 346 343 340 333 323 317 309 300 292 278 263 253 244 240 240 238 235 231 230 230 228 225 222 219 217 215 213 212 211 210 209
215 260 255 256 267 270 268 272 272 273 274 272 268 264 263 264 262 261 264 266 267 266 268 272 268 264 267 273 274 288 311 328 347 5 21 26 23 24 26 23 19 13 5 2 358 355 353 351 349 349 349 350 349 347 346 345 344 342 338 332 326 316 308 301 286 273 261 250 247 245 241 236 233 231 230 227 224 222 218 215 213 211 210 209 208 207
250 292 319 302 290 283 276 272 269 266 265 269 272 270 266 266 265 265 268 270 269 268 266 266 264 264 290 327 339 3 8 9 15 16 21 23 19 21 21 16 10 5 1 356 349 347 347 344 344 345 345 345 343 342 342 340 339 337 335 333 329 322 315 306 289 276 265 257 254 250 243 238 234 231 229 226 223 220 216 213 211 209 208 206 206 206
278 293 317 308 286 277 276 272 272 273 271 268 267 265 262 261 260 259 257 254 258 265 268 271 272 284 357 1 2 13 13 9 10 13 16 18 18 17 14 8 2 357 355 350 343 342 341 339 339 338 336 336 336 337 338 335 333 332 331 330 328 326 323 312 293 278 268 262 259 253 245 239 234 229 227 224 221 217 213 210 208 206 205 204 204 204
256 269 288 282 277 278 274 273 281 291 286 270 264 265 263 262 264 264 261 262 275 286 279 277 286 324 5 12 7 3 4 360 352 2 27 19 14 14 8 360 353 348 346 342 339 336 333 330 330 327 325 328 330 332 333 332 330 328 328 328 328 331 331 322 304 284 273 269 264 256 248 241 233 228 225 222 219 215 210 207 206 204 204 204 203 202
249 256 263 264 273 278 279 288 295 283 270 269 284 319 295 288 294 285 285 331 359 16 29 37 350 348 9 30 19 357 352 345 333 336 57 32 19 10 359 351 346 342 339 336 334 331 327 324 322 322 323 326 329 330 332 332 332 330 329 330 332 334 335 331 319 299 284 278 272 263 254 243 234 229 226 221 216 211 207 206 205 204 204 202 200 201
253 254 255 253 261 268 279 288 276 261 262 270 50 40 31 49 53 78 90 47 24 36 42 25 18 21 20 25 17 351 334 329 317 271 69 26 21 8 352 344 341 337 334 333 332 328 325 322 320 322 324 326 329 331 332 334 335 333 332 333 334 335 337 335 329 319 306 295 285 274 260 248 238 232 228 221 214 210 207 207 205 204 203 201 201 202
241 252 253 248 258 265 266 252 253 270 282 149 81 39 25 28 29 51 86 53 26 25 35 21 17 28 19 3 2 348 322 320 310 250 60 19 12 359 342 335 332 331 330 330 328 325 324 321 318 319 321 325 328 329 331 333 333 332 331 332 333 334 337 338 335 331 324 312 301 289 272 256 245 237 230 221 214 210 209 208 206 204 202 201 202 202
227 240 250 251 244 245 255 250 257 284 291 245 313 9 17 344 342 323 281 60 46 11 3 28 21 22 15 353 348 339 322 320 312 271 71 20 354 337 330 322 318 319 321 321 320 320 320 320 320 321 323 326 328 329 331 331 331 331 329 330 332 334 336 338 338 336 330 321 314 306 290 272 255 243 235 223 216 213 212 210 208 206 202 200 200 200
217 222 232 249 238 237 265 268 263 275 278 238 259 269 251 254 249 230 243 219 89 23 265 204 66 11 9 351 339 337 335 332 320 313 357 352 331 324 321 312 309 314 316 318 319 318 320 322 324 325 328 329 329 330 332 331 330 331 329 329 332 333 333 336 338 337 333 327 322 316 303 285 264 248 238 228 221 217 215 212 209 207 203 201 201 200
277 228 226 255 267 266 272 274 274 271 242 141 248 251 248 264 250 205 230 218 122 222 250 199 171 225 345 332 329 355 354 335 315 310 323 327 323 322 318 313 312 313 314 316 317 317 319 324 326 327 330 331 330 332 334 332 331 331 329 329 330 330 330 332 334 335 333 329 326 320 308 293 272 254 242 232 227 222 218 213 210 207 204 202 202 200
2 325 261 258 263 265 267 266 274 278 219 167 265 260 257 270 267 236 264 256 98 277 243 175 190 217 201 274 292 10 347 315 301 303 312 316 313 312 312 311 312 316 317 318 319 319 321 325 328 330 330 331 330 332 334 332 330 329 327 328 329 328 327 327 329 331 330 328 327 321 312 298 280 261 248 238 231 225 220 215 210 206 203 202 201 200
342 282 248 230 238 249 256 260 268 265 203 209 268 268 276 307 349 264 273 305 350 296 233 169 209 227 211 285 289 293 294 284 284 293 301 307 308 309 311 311 313 317 318 318 321 324 325 326 328 327 326 328 330 331 332 332 329 326 325 326 326 324 324 324 326 327 327 326 325 322 315 303 287 270 254 243 234 227 221 215 210 206 201 199 198 197
227 251 245 212 220 240 237 251 276 271 177 118 295 283 299 21 274 263 276 315 291 270 220 186 217 222 217 247 246 257 281 285 286 291 299 305 306 308 312 315 317 317 317 319 321 324 327 326 326 324 323 325 328 328 330 330 326 322 323 323 322 322 322 323 323 324 324 323 321 319 315 306 292 275 258 244 232 224 218 213 209 207 201 197 196 194
234 283 278 230 217 274 266 251 265 262 206 71 357 321 339 105 252 273 296 259 232 226 213 217 223 216 224 240 242 255 274 284 289 294 300 304 308 312 313 316 317 315 316 318 318 322 327 326 323 321 320 321 324 326 328 329 324 320 319 317 318 320 321 322 323 324 322 319 317 314 310 303 292 274 256 242 230 220 214 210 207 204 200 196 194 191
252 217 251 245 231 246 246 240 247 263 292 332 335 306 278 268 259 258 273 271 247 213 210 226 228 221 224 235 252 265 271 273 279 287 292 298 306 309 309 312 313 313 314 313 312 319 327 324 319 318 316 317 320 323 325 326 322 316 313 312 316 320 322 324 327 326 323 318 314 309 303 296 285 268 250 239 229 217 211 207 202 200 198 196 194 191
235 207 221 247 244 221 211 235 267 300 306 300 295 270 257 268 270 250 248 264 259 223 206 221 244 244 231 224 242 259 266 268 273 280 286 291 295 295 297 302 304 304 307 308 309 316 323 320 316 315 313 312 316 319 321 322 320 313 309 310 316 319 321 325 327 325 321 317 312 306 298 289 278 263 248 237 225 215 211 204 198 196 196 195 195 195
253 241 233 265 262 254 243 247 263 280 278 271 271 264 254 260 267 260 250 249 242 223 211 219 241 252 246 230 235 247 257 268 276 278 279 283 284 286 289 292 295 299 301 303 308 316 321 319 314 312 310 310 312 315 318 318 314 308 305 307 312 317 321 323 321 317 315 312 308 303 294 283 273 260 247 235 224 217 214 207 200 197 196 196 198 200
260 226 224 251 259 261 260 249 238 243 255 260 267 274 272 268 265 253 234 231 229 229 234 226 226 246 257 245 244 253 258 264 272 275 276 274 273 280 286 286 290 294 294 296 304 311 314 313 309 308 307 305 307 311 315 313 309 305 304 306 311 318 320 319 314 311 308 305 302 299 290 276 267 256 244 233 223 218 215 212 206 201 198 198 198 200
252 171 183 238 248 245 255 264 257 248 255 265 272 274 275 274 272 258 228 221 231 242 244 227 212 231 256 258 257 265 269 269 267 267 275 276 272 277 282 282 284 288 290 294 301 306 308 306 302 303 303 300 302 309 311 308 305 303 304 306 311 316 317 312 307 304 302 299 297 293 284 272 262 252 241 231 223 217 214 211 208 206 206 205 201 199
274 229 212 234 252 257 264 269 269 266 269 270 264 262 264 264 266 260 230 213 236 249 252 258 246 234 245 261 267 272 274 275 273 267 271 278 280 281 281 281 283 285 286 291 297 300 301 299 298 300 299 296 300 305 306 303 300 300 301 304 309 312 310 305 302 300 296 294 292 288 280 270 258 248 239 232 225 221 219 216 212 212 215 215 211 207
195 250 247 243 253 260 260 257 255 262 273 268 262 268 270 251 244 248 234 225 237 243 254 276 277 265 255 255 258 263 270 276 280 278 274 275 278 281 282 283 286 287 287 292 296 295 294 292 293 296 295 294 298 301 299 298 297 296 298 302 306 307 303 299 298 295 291 289 287 284 280 270 257 247 240 233 227 224 225 225 222 220 221 222 221 218
219 241 247 245 246 251 256 256 254 255 263 265 271 281 285 175 195 235 250 252 249 252 269 277 277 281 280 269 258 255 264 276 282 281 277 277 277 278 280 281 283 285 289 294 296 295 294 293 293 293 292 293 296 297 296 296 295 294 297 302 303 301 298 293 291 289 286 284 282 281 279 272 261 250 241 235 230 224 222 225 226 225 225 226 225 223